St. Petersburg, FL

1:02 AM EST on November 24, 2017 (GMT -0500)
Whitted

Weather History for KSPG - December, 2011

Change the Weather History Date:

Friday, December 30, 2011

  Actual Average Record
Temperature  
Mean Temperature 64 °F -  
Max Temperature 72 °F 71 °F 84 °F (2015)
Min Temperature 57 °F 54 °F 37 °F (1961)
Growing Degree Days 14 (Base 50)    
Moisture  
Dew Point 55 °F    
Average Humidity 73    
Maximum Humidity 89    
Minimum Humidity 53    
Precipitation  
Precipitation 0.00 in - - ()
Sea Level Pressure  
Sea Level Pressure 30.11 in    
Wind  
Wind Speed 2 mph (SSW)    
Max Wind Speed 6 mph    
Max Gust Speed -    
Visibility 10 miles    
Events      
Averages and records for this station are not official NWS values.
T = Trace of Precipitation, MM = Missing Value Source: NWS Daily Summary

Daily Weather History Graph

Daily Weather History Graph

Search for Another Location

Airport or City:

Trip Planner

Search our weather history database for the weather conditions in past years. The results will help you decide how hot, cold, wet, or windy it might be!

Date:

Astronomy

Dec. 30, 2011 Rise Set
Actual Time 7:20 AM EST 5:45 PM EST
Civil Twilight 6:55 AM EST 6:10 PM EST
Nautical Twilight 6:25 AM EST 6:40 PM EST
Astronomical Twilight 5:57 AM EST 7:08 PM EST
Moon 11:12 AM EST (12/30) 11:43 PM EST (12/30)
Length of Visible Light 11h 15m
Length of Day
10h 24m
Waxing Crescent, 35% of the Moon is Illuminated
Dec 30
Waxing Crescent
Jan 1
First Quarter
Jan 9
Full
Jan 16
Last Quarter
Jan 23
New

Hourly Weather History & Observations

Time (EST) Temp. Dew Point Humidity Pressure Visibility Wind Dir Wind Speed Gust Speed Precip Events Conditions
12:53 AM 59.0 °F 53.1 °F 81% 30.10 in 10.0 mi Calm Calm - N/A   Clear
1:53 AM 59.0 °F 53.1 °F 81% 30.09 in 10.0 mi Calm Calm - N/A   Clear
2:53 AM 60.1 °F 53.1 °F 78% 30.09 in 10.0 mi ESE 5.8 mph - N/A   Clear
3:53 AM 59.0 °F 54.0 °F 83% 30.09 in 10.0 mi Calm Calm - N/A   Clear
4:53 AM 57.9 °F 54.0 °F 87% 30.10 in 10.0 mi Calm Calm - N/A   Clear
5:53 AM 57.0 °F 54.0 °F 89% 30.10 in 10.0 mi Calm Calm - N/A   Clear
7:53 AM 60.1 °F 52.0 °F 75% 30.13 in 10.0 mi SSE 5.8 mph - N/A   Partly Cloudy
8:53 AM 61.0 °F 53.1 °F 75% 30.15 in 10.0 mi SSE 4.6 mph - N/A   Mostly Cloudy
9:53 AM 63.0 °F 54.0 °F 72% 30.16 in 10.0 mi ESE 5.8 mph - N/A   Overcast
11:53 AM 66.9 °F 55.0 °F 66% 30.13 in 10.0 mi Calm Calm - N/A   Overcast
2:53 PM 72.0 °F 55.9 °F 57% 30.07 in 10.0 mi SSE 3.5 mph - N/A   Overcast
3:53 PM 71.1 °F 54.0 °F 55% 30.07 in 10.0 mi West 5.8 mph - N/A   Mostly Cloudy
4:53 PM 71.1 °F 53.1 °F 53% 30.07 in 10.0 mi WSW 4.6 mph - N/A   Mostly Cloudy
5:53 PM 70.0 °F 52.0 °F 53% 30.08 in 10.0 mi WSW 4.6 mph - N/A   Mostly Cloudy
6:53 PM 68.0 °F 55.0 °F 63% 30.09 in 10.0 mi SW 4.6 mph - N/A   Clear
7:53 PM 66.9 °F 55.0 °F 66% 30.11 in 10.0 mi WSW 4.6 mph - N/A   Clear
8:53 PM 66.0 °F 57.0 °F 73% 30.12 in 10.0 mi Calm Calm - N/A   Scattered Clouds
9:53 PM 66.0 °F 59.0 °F 78% 30.13 in 10.0 mi WSW 3.5 mph - N/A   Overcast
10:53 PM 66.0 °F 60.1 °F 81% 30.12 in 10.0 mi WSW 3.5 mph - N/A   Partly Cloudy
11:53 PM 64.9 °F 61.0 °F 87% 30.12 in 10.0 mi WSW 4.6 mph - N/A   Clear